Location: Praha
(50.0830°N, 14.4670°E)
Time: 15:35:05
(UTC+02:00)

ISS - Pass Details

Date: 06 October 2019
Orbit: 411 x 421 km, 51.6° (Epoch: 18 October)

Event Time Altitude Azimuth Distance (km) Brightness Sun altitude
Rises 19:43:43 0° 287° (WNW) 2,348 1.9 -12.5°
Reaches altitude 10° 19:45:54 10° 278° (W) 1,483 0.5 -12.9°
Maximum altitude 19:48:58 36° 211° (SSW) 676 -2.5 -13.4°
Enters shadow 19:51:19 15° 149° (SSE) 1,206 -1.8 -13.8°
